TimeMDT,TemperatureF,Dew PointF,Humidity,Sea Level PressureIn,VisibilityMPH,Wind Direction,Wind SpeedMPH,Gust SpeedMPH,PrecipitationIn,Events,Conditions,WindDirDegrees,DateUTC
12:53 AM,60.1,51.1,72,29.91,10.0,North,3.5,-,N/A,,Clear,350,2013-08-27 06:53:00
1:53 AM,60.1,51.1,72,29.91,10.0,ESE,4.6,-,N/A,,Clear,120,2013-08-27 07:53:00
2:53 AM,57.9,50.0,75,29.91,10.0,South,6.9,-,N/A,,Clear,190,2013-08-27 08:53:00
3:53 AM,54.0,48.9,83,29.93,10.0,WSW,4.6,-,N/A,,Clear,240,2013-08-27 09:53:00
4:53 AM,55.0,48.9,80,29.95,10.0,SSW,9.2,-,N/A,,Clear,210,2013-08-27 10:53:00
5:53 AM,55.0,48.9,80,29.94,10.0,SSW,8.1,-,N/A,,Clear,200,2013-08-27 11:53:00
6:53 AM,55.0,48.9,80,29.97,10.0,SSW,8.1,-,N/A,,Clear,200,2013-08-27 12:53:00
7:53 AM,60.1,51.1,72,29.96,10.0,SSW,4.6,-,N/A,,Partly Cloudy,210,2013-08-27 13:53:00
8:53 AM,68.0,51.1,55,29.96,10.0,SSW,4.6,-,N/A,,Clear,210,2013-08-27 14:53:00
9:53 AM,73.0,51.1,46,29.95,10.0,SW,4.6,-,N/A,,Partly Cloudy,220,2013-08-27 15:53:00
10:53 AM,79.0,50.0,36,29.94,10.0,SSE,8.1,-,N/A,,Clear,150,2013-08-27 16:53:00
11:53 AM,84.0,44.1,25,29.91,10.0,East,6.9,-,N/A,,Clear,100,2013-08-27 17:53:00
12:53 PM,87.1,46.0,24,29.88,10.0,ENE,10.4,-,N/A,,Clear,60,2013-08-27 18:53:00
1:53 PM,90.0,42.1,19,29.86,10.0,SW,8.1,18.4,N/A,,Scattered Clouds,220,2013-08-27 19:53:00
2:53 PM,91.0,37.9,15,29.85,10.0,SSW,9.2,-,N/A,,Clear,210,2013-08-27 20:53:00
3:53 PM,91.0,34.0,13,29.84,10.0,WSW,13.8,20.7,N/A,,Clear,240,2013-08-27 21:53:00
4:53 PM,91.0,36.0,14,29.83,9.0,SW,10.4,-,N/A,,Clear,230,2013-08-27 22:53:00
5:53 PM,89.1,37.0,16,29.83,9.0,SW,9.2,-,N/A,,Clear,220,2013-08-27 23:53:00
6:53 PM,87.1,37.9,18,29.84,7.0,South,16.1,20.7,N/A,,Partly Cloudy,170,2013-08-28 00:53:00
7:08 PM,84.2,37.4,19,29.92,8.0,SSE,11.5,-,N/A,,Partly Cloudy,160,2013-08-28 01:08:00
7:53 PM,78.1,41.0,27,29.85,8.0,SSE,6.9,-,N/A,,Clear,160,2013-08-28 01:53:00
8:53 PM,71.1,41.0,34,29.84,9.0,SSW,4.6,-,N/A,,Clear,210,2013-08-28 02:53:00
9:53 PM,72.0,44.1,37,29.84,9.0,Calm,Calm,-,N/A,,Clear,0,2013-08-28 03:53:00
10:53 PM,64.0,43.0,46,29.85,9.0,South,9.2,-,N/A,,Clear,180,2013-08-28 04:53:00
11:53 PM,64.9,43.0,45,29.84,10.0,North,4.6,-,N/A,,Clear,360,2013-08-28 05:53:00